Madison, MN

10:57 PM CDT on May 22, 2017 (GMT -0500)
Madison-Lac Qui Parle County

Weather History for KDXX - March, 2013

Change the Weather History Date:

Saturday, March 2, 2013

  Actual Average (KAQP) Record (KAQP)
Temperature  
Mean Temperature 12 °F -  
Max Temperature 24 °F 24 °F 35 °F (1999)
Min Temperature 1 °F 9 °F -14 °F (2003)
Degree Days  
Heating Degree Days 52    
Moisture  
Dew Point 11 °F    
Average Humidity 83    
Maximum Humidity 93    
Minimum Humidity 69    
Precipitation  
Precipitation 0.00 in - - ()
Sea Level Pressure  
Sea Level Pressure 30.23 in    
Wind  
Wind Speed 5 mph (SE)    
Max Wind Speed 14 mph    
Max Gust Speed -    
Visibility 8 miles    
Events Fog , Snow    
Averages and records for this station are not official NWS values.
T = Trace of Precipitation, MM = Missing Value Source: NWS Daily Summary

Daily Weather History Graph

Daily Weather History Graph

Search for Another Location

Airport or City:

Trip Planner

Search our weather history database for the weather conditions in past years. The results will help you decide how hot, cold, wet, or windy it might be!

Date:

Astronomy

Mar. 02, 2013 Rise Set
Actual Time 7:00 AM CST 6:13 PM CST
Civil Twilight 6:30 AM CST 6:43 PM CST
Nautical Twilight 5:56 AM CST 7:17 PM CST
Astronomical Twilight 5:22 AM CST 7:51 PM CST
Moon No Moon Rise 9:13 AM CST (3/2)
Length of Visible Light 12h 12m
Length of Day
11h 13m
Waning Gibbous, 74% of the Moon is Illuminated
Mar 2
Waning Gibbous
Mar 4
Last Quarter
Mar 11
New
Mar 19
First Quarter
Mar 27
Full

Hourly Weather History & Observations

Time (CST) Temp. Windchill Dew Point Humidity Pressure Visibility Wind Dir Wind Speed Gust Speed Precip Events Conditions
12:14 AM 6.8 °F - 3.2 °F 85% 30.36 in 3.0 mi Calm Calm - N/A   Clear
12:33 AM 6.8 °F -0.1 °F 1.4 °F 79% 30.35 in 1.5 mi West 3.5 mph - N/A   Mist
12:54 AM 5.0 °F -2.1 °F 1.4 °F 85% 30.35 in 0.5 mi West 3.5 mph - N/A Fog Light Freezing Fog
1:14 AM 5.0 °F -4.1 °F 1.4 °F 85% 30.35 in 3.0 mi West 4.6 mph - N/A   Scattered Clouds
1:33 AM 5.0 °F -2.1 °F 1.4 °F 85% 30.36 in 5.0 mi West 3.5 mph - N/A   Clear
1:54 AM 3.2 °F -4.2 °F -0.4 °F 85% 30.36 in 7.0 mi WNW 3.5 mph - N/A   Clear
2:14 AM 5.0 °F - 1.4 °F 85% 30.35 in 7.0 mi Calm Calm - N/A   Clear
2:33 AM 3.2 °F - -0.4 °F 85% 30.34 in 7.0 mi Calm Calm - N/A   Clear
2:54 AM 3.2 °F - -0.4 °F 85% 30.34 in 7.0 mi Calm Calm - N/A   Clear
3:14 AM 3.2 °F - -0.4 °F 85% 30.34 in 7.0 mi Calm Calm - N/A   Clear
3:33 AM 3.2 °F - -0.4 °F 85% 30.34 in 5.0 mi Calm Calm - N/A   Clear
3:54 AM 3.2 °F - -0.4 °F 85% 30.33 in 7.0 mi Calm Calm - N/A   Scattered Clouds
4:14 AM 1.4 °F - -0.4 °F 92% 30.32 in 7.0 mi Calm Calm - N/A   Overcast
4:33 AM 1.4 °F - -2.2 °F 85% 30.32 in 10.0 mi Calm Calm - N/A   Overcast
5:14 AM 1.4 °F - -2.2 °F 85% 30.32 in 0.2 mi Calm Calm - N/A Fog Light Freezing Fog
5:54 AM 1.4 °F - -2.2 °F 85% 30.33 in 0.2 mi Calm Calm - N/A Fog Light Freezing Fog
6:13 AM 1.4 °F - -2.2 °F 85% 30.32 in 0.2 mi Calm Calm - N/A Snow Light Snow
6:34 AM 3.2 °F - -0.4 °F 85% 30.32 in 0.2 mi Calm Calm - N/A Fog Light Freezing Fog
6:54 AM 3.2 °F - -0.4 °F 85% 30.31 in 0.2 mi Calm Calm - N/A Fog Light Freezing Fog
7:13 AM 3.2 °F - -0.4 °F 85% 30.31 in 0.2 mi Calm Calm - N/A Snow Light Snow
7:54 AM 6.8 °F - 1.4 °F 79% 30.30 in 2.5 mi Calm Calm - N/A Snow Light Snow
8:13 AM 6.8 °F - 3.2 °F 85% 30.31 in 3.0 mi Calm Calm - N/A Snow Light Snow
8:34 AM 6.8 °F - 3.2 °F 85% 30.30 in 5.0 mi Calm Calm - N/A Snow Light Snow
8:54 AM 8.6 °F - 5.0 °F 85% 30.29 in 4.0 mi Calm Calm - N/A Snow Light Snow
9:13 AM 8.6 °F - 6.8 °F 92% 30.29 in 5.0 mi North - - N/A Snow Light Snow
9:34 AM 10.4 °F - 6.8 °F 85% 30.28 in 10.0 mi Calm Calm - N/A   Clear
9:54 AM 12.2 °F - 8.6 °F 85% 30.29 in 5.0 mi Calm Calm - N/A Snow Light Snow
10:13 AM 12.2 °F 4.3 °F 8.6 °F 85% 30.28 in 7.0 mi SE 4.6 mph - N/A Snow Light Snow
10:34 AM 14.0 °F 5.1 °F 10.4 °F 86% 30.28 in 10.0 mi SE 5.8 mph - N/A   Scattered Clouds
10:54 AM 15.8 °F 7.2 °F 12.2 °F 86% 30.27 in 10.0 mi SSE 5.8 mph - N/A   Scattered Clouds
11:13 AM 15.8 °F 7.2 °F 12.2 °F 86% 30.27 in 10.0 mi SE 5.8 mph - N/A   Clear
11:34 AM 17.6 °F 7.3 °F 14.0 °F 86% 30.27 in 10.0 mi SE 8.1 mph - N/A   Scattered Clouds
11:54 AM 17.6 °F 6.4 °F 15.8 °F 93% 30.26 in 10.0 mi SE 9.2 mph - N/A   Scattered Clouds
12:13 PM 17.6 °F 6.4 °F 15.8 °F 93% 30.26 in 10.0 mi SE 9.2 mph - N/A   Scattered Clouds
12:34 PM 19.4 °F 8.6 °F 15.8 °F 86% 30.24 in 10.0 mi SE 9.2 mph - N/A   Scattered Clouds
12:54 PM 19.4 °F 8.6 °F 15.8 °F 86% 30.24 in 10.0 mi SE 9.2 mph - N/A   Mostly Cloudy
1:13 PM 21.2 °F 10.1 °F 15.8 °F 80% 30.22 in 10.0 mi SE 10.4 mph - N/A   Mostly Cloudy
1:34 PM 21.2 °F 10.9 °F 15.8 °F 80% 30.22 in 10.0 mi SSE 9.2 mph - N/A   Scattered Clouds
1:54 PM 23.0 °F 13.9 °F 15.8 °F 74% 30.22 in 10.0 mi SSE 8.1 mph - N/A   Mostly Cloudy
2:13 PM 23.0 °F 13.1 °F 15.8 °F 74% 30.20 in 10.0 mi SSE 9.2 mph - N/A   Overcast
2:33 PM 24.8 °F 13.4 °F 15.8 °F 69% 30.18 in 10.0 mi SE 12.7 mph - N/A   Overcast
2:54 PM 24.8 °F 13.4 °F 17.6 °F 74% 30.18 in 10.0 mi SE 12.7 mph - N/A   Overcast
3:13 PM 24.8 °F 12.9 °F 17.6 °F 74% 30.17 in 10.0 mi SE 13.8 mph - N/A   Overcast
3:33 PM 24.8 °F 14.0 °F 17.6 °F 74% 30.17 in 10.0 mi SE 11.5 mph - N/A   Overcast
3:54 PM 24.8 °F 13.4 °F 17.6 °F 74% 30.17 in 10.0 mi SE 12.7 mph - N/A   Overcast
4:13 PM 24.8 °F 14.0 °F 17.6 °F 74% 30.16 in 10.0 mi SE 11.5 mph - N/A   Overcast
4:33 PM 24.8 °F 14.0 °F 17.6 °F 74% 30.16 in 10.0 mi SE 11.5 mph - N/A   Overcast
4:54 PM 24.8 °F 14.6 °F 17.6 °F 74% 30.16 in 10.0 mi ESE 10.4 mph - N/A   Overcast
5:13 PM 24.8 °F 13.4 °F 17.6 °F 74% 30.15 in 10.0 mi SE 12.7 mph - N/A   Overcast
5:53 PM 23.0 °F 10.6 °F 17.6 °F 80% 30.14 in 10.0 mi SE 13.8 mph - N/A   Overcast
6:14 PM 23.0 °F 11.1 °F 17.6 °F 80% 30.14 in 10.0 mi SE 12.7 mph - N/A   Overcast
6:33 PM 23.0 °F 11.7 °F 17.6 °F 80% 30.14 in 10.0 mi SE 11.5 mph - N/A   Overcast
6:54 PM 23.0 °F 11.7 °F 19.4 °F 86% 30.13 in 10.0 mi SE 11.5 mph - N/A   Overcast
7:14 PM 24.8 °F 15.3 °F 19.4 °F 80% 30.14 in 10.0 mi SE 9.2 mph - N/A   Overcast
7:33 PM 23.0 °F 12.4 °F 19.4 °F 86% 30.14 in 10.0 mi ESE 10.4 mph - N/A   Overcast
7:54 PM 23.0 °F 13.1 °F 19.4 °F 86% 30.14 in 10.0 mi SE 9.2 mph - N/A   Overcast
8:14 PM 23.0 °F 12.4 °F 19.4 °F 86% 30.13 in 10.0 mi SE 10.4 mph - N/A   Overcast
8:33 PM 23.0 °F 11.7 °F 17.6 °F 80% 30.13 in 10.0 mi ESE 11.5 mph - N/A   Overcast
8:54 PM 23.0 °F 12.4 °F 17.6 °F 80% 30.13 in 10.0 mi SE 10.4 mph - N/A   Overcast
9:14 PM 23.0 °F 11.1 °F 17.6 °F 80% 30.12 in 10.0 mi ESE 12.7 mph - N/A   Overcast
9:33 PM 23.0 °F 11.7 °F 17.6 °F 80% 30.12 in 10.0 mi ESE 11.5 mph - N/A   Overcast
9:53 PM 23.0 °F 11.1 °F 17.6 °F 80% 30.11 in 10.0 mi SE 12.7 mph - N/A   Overcast
10:14 PM 23.0 °F 11.7 °F 17.6 °F 80% 30.10 in 10.0 mi ESE 11.5 mph - N/A   Mostly Cloudy
10:33 PM 21.2 °F 10.1 °F 17.6 °F 86% 30.10 in 10.0 mi SE 10.4 mph - N/A   Mostly Cloudy
10:54 PM 21.2 °F 10.9 °F 17.6 °F 86% 30.09 in 10.0 mi SE 9.2 mph - N/A   Mostly Cloudy
11:14 PM 21.2 °F 10.9 °F 17.6 °F 86% 30.08 in 10.0 mi SE 9.2 mph - N/A   Clear
11:33 PM 19.4 °F 7.9 °F 15.8 °F 86% 30.07 in 10.0 mi SE 10.4 mph - N/A   Clear
11:54 PM 19.4 °F 7.9 °F 17.6 °F 93% 30.07 in 10.0 mi SE 10.4 mph - N/A   Clear